Regional Weather Roundup
Issued by NWS New Orleans/Baton Rouge, LA

Home | Current Version | Previous Version | Graphics & Text | Print | Product List | Glossary On
Versions: 1 2 3 4 5 6 7 8 9 10 11 12 13 14 15 16 17 18 19 20 21 22 23 24 25 26 27 28 29 30 31 32 33 34 35 36 37 38 39 40 41 42 43 44 45 46 47 48 49 50
283
ASUS44 KLIX 220010
RWRLIX
NEW ORLEANS REGIONAL WEATHER ROUNDUP
NATIONAL WEATHER SERVICE NEW ORLEANS LA
700 PM CDT MON JUL 21 2014

NOTE: "FAIR" INDICATES FEW OR NO CLOUDS BELOW 12,000 FEET WITH NO
      SIGNIFICANT WEATHER AND/OR OBSTRUCTIONS TO VISIBILITY.
      SKY/WX - SKY CONDITION AND SIGNIFICANT WEATHER.
      TMP - AIR TEMPERATURE.     DP    - DEWPOINT TEMPERATURE.
      RH  - RELATIVE HUMIDITY.   PRES  - PRESSURE.
      HI  - HEAT INDEX.          WCI   - WIND CHILL INDEX.

*  THESE STATIONS ARE NOT NWS OR FAA STATIONS AND ARE NOT UNDER
   NWS QUALITY CONTROL.

LAZ038-040-048-061>063-065>067-069-220100-
SOUTHEAST LOUISIANA

CITY           SKY/WX    TMP DP  RH WIND       PRES   REMARKS
N.O. AUDUBON     N/A     90  72  55 MISG        N/A  HX  97
6HR MIN TEMP:  90; 6HR MAX TEMP:  93;

N.O. INTL ARPT MOSUNNY   87  70  56 N5        29.98S
6HR MIN TEMP:  87; 6HR MAX TEMP:  90;

N.O. LAKEFRONT SUNNY     87  71  58 CALM      29.99S
6HR MIN TEMP:  86; 6HR MAX TEMP:  89;

N.O. DOWNTOWN*   N/A     88  68  51 N5        29.98F
6HR MIN TEMP:  88; 6HR MAX TEMP:  90;

SLIDELL        SUNNY     87  71  58 NE5       29.97F
6HR MIN TEMP:  87; 6HR MAX TEMP:  91;

BATON ROUGE    MOSUNNY   87  71  58 N5        29.98S
6HR MIN TEMP:  86; 6HR MAX TEMP:  91;

BOOTHVILLE     MOSUNNY   84  74  71 E5        29.99S
6HR MIN TEMP:  83; 6HR MAX TEMP:  87;

BELLE CHASSE   MOSUNNY   86  71  60 NE5       29.97F
6HR MIN TEMP:  86; 6HR MAX TEMP:  91;

BOGALUSA*        N/A     87  72  61 CALM      30.00S
6HR MIN TEMP:  86; 6HR MAX TEMP:  90;

GALLIANO*      NOT AVBL
NEW ROADS*       N/A     85  72  64 N7        29.99S
6HR MIN TEMP:  85; 6HR MAX TEMP:  88; 6HR PCP:  0.01;

GONZALES*      MOCLDY    87  74  64 N5        29.98R HX  96
6HR MIN TEMP:  87; 6HR MAX TEMP:  90;

HAMMOND*       SUNNY     88  68  51 N3        30.00S
HOUMA*         NOT AVBL
PORT FOURCHON* PTCLDY    84  77  79 SW7       30.00S

$$

MSZ070-080>082-220100-
SOUTHERN MISSISSIPPI

CITY           SKY/WX    TMP DP  RH WIND       PRES   REMARKS
MCCOMB         SUNNY     84  69  60 NW6       30.01R
6HR MIN TEMP:  84; 6HR MAX TEMP:  88;

GULFPORT       SUNNY     89  70  53 W5        29.97S
6HR MIN TEMP:  89; 6HR MAX TEMP:  94;

BILOXI         SUNNY     87  69  55 VRB1      29.98R
6HR MIN TEMP:  87; 6HR MAX TEMP:  91;

PASCAGOULA     MOSUNNY   85  73  67 CALM      29.97S
6HR MIN TEMP:  85; 6HR MAX TEMP:  91;

STENNIS ARPT*  MOSUNNY  N/A N/A N/A CALM      29.98S

$$

COASTAL OBSERVATIONS
LAKE AND NEARSHORE STATIONS

STATION/POSITION TIME  TEMP    WIND        PRES    WAVE
                       AIR SEA DIR/SP/G            HT/PER
                 (UTC) (F)     (DEG/KT/KT) (MB)    (FT/S)
PASCAGOULA       0000   86     250/  7/ 11 1014.6
WAVELAND YACHT   0000   87     310/  4/  5 1014.6
GRAND ISLE       0000   83 85  150/  3/  5 1016.1
SOUTHWEST PASS   0000   85 85   90/  7/  8 1015.9
NEW CANAL        0000   86 85   70/  2/  3 1015.6
SHELL BEACH      0000   86 81  110/  4/  5 1015.2

OFFSHORE STATIONS

STATION/POSITION TIME  TEMP    WIND        PRES    WAVE
                       AIR SEA DIR/SP/G            HT/PER
                 (UTC) (F)     (DEG/KT/KT) (MB)    (FT/S)

$$




USA.gov is the U.S. government's official web portal to all federal, state and local government web resources and services.